timestamp,surface_pressure_avg,surface_temp_avg,battery_voltage,lat,long
2019-03-03 00:00:00+00:00,299.1064,-1.0,12.97,47.84626,-54.09684
2019-03-03 00:10:00+00:00,293.4313,-1.0,12.81,47.84626,-54.09684
2019-03-03 00:20:00+00:00,286.6263,-1.0,12.97,47.84626,-54.09684
2019-03-03 00:30:00+00:00,283.1965,-1.0,12.97,47.84626,-54.09684
2019-03-03 00:40:00+00:00,278.1931,-1.0,12.97,47.84626,-54.09684
2019-03-03 00:50:00+00:00,273.4581,-1.0,12.97,47.84626,-54.09684
2019-03-03 01:00:00+00:00,270.9831,-1.0,12.89,47.84626,-54.09684
2019-03-03 01:10:00+00:00,271.7997,-1.0,12.81,47.84626,-54.09684
2019-03-03 01:20:00+00:00,268.9264,-1.0,12.89,47.84626,-54.09684
2019-03-03 01:30:00+00:00,264.0797,-1.0,12.89,47.84626,-54.09684
2019-03-03 01:40:00+00:00,256.7731,-1.0,12.97,47.84626,-54.09684
2019-03-03 01:50:00+00:00,245.4731,-1.01,12.97,47.84626,-54.09684
2019-03-03 02:00:00+00:00,240.123,-1.0,12.89,47.84626,-54.09684
2019-03-03 02:10:00+00:00,247.6298,-1.0,12.81,47.84626,-54.09684
2019-03-03 02:20:00+00:00,247.2014,-1.0,12.89,47.84626,-54.09684
2019-03-03 02:30:00+00:00,237.3531,-1.01,12.89,47.84626,-54.09684
2019-03-03 02:40:00+00:00,232.8281,-1.02,12.89,47.84626,-54.09684
2019-03-03 02:50:00+00:00,233.7131,-1.02,12.97,47.84626,-54.09684
2019-03-03 03:00:00+00:00,230.5998,-1.02,12.81,47.84626,-54.09684
2019-03-03 03:10:00+00:00,223.5665,-1.03,12.81,47.84626,-54.09684
2019-03-03 03:20:00+00:00,225.3297,-1.05,12.89,47.84626,-54.09684
2019-03-03 03:30:00+00:00,229.2698,-1.04,12.89,47.84626,-54.09684
2019-03-03 03:40:00+00:00,228.1348,-1.04,12.89,47.84626,-54.09684
2019-03-03 03:50:00+00:00,231.5514,-1.05,12.89,47.84626,-54.09684
2019-03-03 04:00:00+00:00,238.8698,-1.05,12.81,47.84626,-54.09684
2019-03-03 04:10:00+00:00,238.1731,-1.05,12.73,47.84626,-54.09684
2019-03-03 04:20:00+00:00,235.923,-1.06,12.81,47.84626,-54.09684
2019-03-03 04:30:00+00:00,247.1531,-1.07,12.81,47.84626,-54.09684
2019-03-03 04:40:00+00:00,251.5164,-1.06,12.89,47.84626,-54.09684
2019-03-03 04:50:00+00:00,245.8481,-1.09,12.89,47.84626,-54.09684
2019-03-03 05:00:00+00:00,245.3948,-1.1,12.81,47.84626,-54.09684
2019-03-03 05:10:00+00:00,246.7415,-1.1,12.73,47.84626,-54.09684
2019-03-03 05:20:00+00:00,249.8264,-1.1,12.81,47.84626,-54.09684
2019-03-03 05:30:00+00:00,256.6198,-1.1,12.81,47.84626,-54.09684
2019-03-03 05:40:00+00:00,266.2481,-1.1,12.81,47.84626,-54.09684
2019-03-03 05:50:00+00:00,272.0964,-1.1,12.81,47.84626,-54.09684
2019-03-03 06:00:00+00:00,273.5081,-1.1,12.73,47.84626,-54.09684
2019-03-03 06:10:00+00:00,269.9997,-1.1,12.65,47.84626,-54.09684
2019-03-03 06:20:00+00:00,273.3981,-1.1,12.81,47.84626,-54.09684
2019-03-03 06:30:00+00:00,289.0565,-1.1,12.81,47.84626,-54.09684
2019-03-03 06:40:00+00:00,301.133,-1.1,12.81,47.84626,-54.09684
2019-03-03 06:50:00+00:00,299.013,-1.11,12.81,47.84626,-54.09684
2019-03-03 07:00:00+00:00,300.613,-1.2,12.73,47.84626,-54.09684
2019-03-03 07:10:00+00:00,314.693,-1.2,12.65,47.84626,-54.09684
2019-03-03 07:20:00+00:00,323.3097,-1.17,12.73,47.84626,-54.09684
2019-03-03 07:30:00+00:00,324.7179,-1.16,12.73,47.84626,-54.09684
2019-03-03 07:40:00+00:00,329.7546,-1.12,12.81,47.84626,-54.09684
2019-03-03 07:50:00+00:00,333.358,-1.11,12.81,47.84626,-54.09684
2019-03-03 08:00:00+00:00,326.6263,-1.14,12.73,47.84626,-54.09684
2019-03-03 08:10:00+00:00,320.7714,-1.2,12.65,47.84626,-54.09684
2019-03-03 08:20:00+00:00,327.763,-1.2,12.73,47.84626,-54.09684
2019-03-03 08:30:00+00:00,342.0513,-1.2,12.73,47.84626,-54.09684
2019-03-03 08:40:00+00:00,343.7712,-1.2,12.81,47.84626,-54.09684
2019-03-03 08:50:00+00:00,344.558,-1.2,12.81,47.84626,-54.09684
2019-03-03 09:00:00+00:00,350.678,-1.2,12.73,47.84626,-54.09684
2019-03-03 09:10:00+00:00,356.0596,-1.2,12.65,47.84626,-54.09684
2019-03-03 09:20:00+00:00,350.983,-1.2,12.73,47.84626,-54.09684
2019-03-03 09:30:00+00:00,353.8879,-1.2,12.73,47.84626,-54.09684
2019-03-03 09:40:00+00:00,359.483,-1.2,12.81,47.84626,-54.09684
2019-03-03 09:50:00+00:00,357.858,-1.2,12.81,47.84626,-54.09684
2019-03-03 10:00:00+00:00,357.6229,-1.2,12.73,47.84626,-54.09684
2019-03-03 10:10:00+00:00,361.3113,-1.2,12.65,47.84626,-54.09684
2019-03-03 10:20:00+00:00,367.5295,-1.2,12.73,47.84626,-54.09684
2019-03-03 10:30:00+00:00,366.2979,-1.2,12.73,47.84626,-54.09684
2019-03-03 10:40:00+00:00,366.4595,-1.2,12.81,47.84626,-54.09684
2019-03-03 10:50:00+00:00,371.3546,-1.15,12.81,47.84626,-54.09684
2019-03-03 11:00:00+00:00,365.2213,-1.12,12.73,47.84626,-54.09684
2019-03-03 11:10:00+00:00,354.3331,-1.2,12.65,47.84626,-54.09684
2019-03-03 11:20:00+00:00,355.5845,-1.2,12.81,47.84626,-54.09684
2019-03-03 11:30:00+00:00,359.2795,-1.19,12.81,47.84626,-54.09684
2019-03-03 11:40:00+00:00,351.9046,-1.2,12.89,47.84626,-54.09684
2019-03-03 11:50:00+00:00,339.5596,-1.2,12.97,47.84626,-54.09684
2019-03-03 12:00:00+00:00,334.7413,-1.2,12.97,47.84626,-54.09684
2019-03-03 12:10:00+00:00,334.7947,-1.2,12.97,47.84626,-54.09684
2019-03-03 12:20:00+00:00,329.6481,-1.2,13.21,47.84626,-54.09684
2019-03-03 12:30:00+00:00,326.5563,-1.3,13.37,47.84626,-54.09684
2019-03-03 12:40:00+00:00,318.4847,-1.3,13.76,47.84626,-54.09684
2019-03-03 12:50:00+00:00,305.6863,-1.4,14.08,47.84626,-54.09684
2019-03-03 13:00:00+00:00,298.4097,-1.4,14.4,47.84626,-54.09684
2019-03-03 13:10:00+00:00,290.1848,-1.4,14.56,47.84626,-54.09684
2019-03-03 13:20:00+00:00,287.1447,-1.4,14.56,47.84626,-54.09684
2019-03-03 13:30:00+00:00,287.6597,-1.4,14.56,47.84626,-54.09684
2019-03-03 13:40:00+00:00,281.4398,-1.4,14.64,47.84626,-54.09684
2019-03-03 13:50:00+00:00,274.5064,-1.4,14.64,47.84626,-54.09684
2019-03-03 14:00:00+00:00,280.2531,-1.4,14.48,47.84626,-54.09684
2019-03-03 14:10:00+00:00,279.9897,-1.4,14.4,47.84626,-54.09684
2019-03-03 14:20:00+00:00,267.8314,-1.4,14.56,47.84626,-54.09684
2019-03-03 14:30:00+00:00,261.093,-1.4,14.56,47.84626,-54.09684
2019-03-03 14:40:00+00:00,259.7531,-1.38,14.56,47.84626,-54.09684
2019-03-03 14:50:00+00:00,249.4331,-1.34,14.64,47.84626,-54.09684
2019-03-03 15:00:00+00:00,242.4348,-1.32,14.56,47.84626,-54.09684
2019-03-03 15:10:00+00:00,241.253,-1.31,14.48,47.84626,-54.09684
2019-03-03 15:20:00+00:00,240.2597,-1.3,14.56,47.84626,-54.09684
2019-03-03 15:30:00+00:00,238.2748,-1.3,14.64,47.84626,-54.09684
2019-03-03 15:40:00+00:00,238.8098,-1.3,14.72,47.84626,-54.09684
2019-03-03 15:50:00+00:00,242.5831,-1.3,14.72,47.84626,-54.09684
2019-03-03 16:00:00+00:00,242.1464,-1.3,14.72,47.84626,-54.09684
2019-03-03 16:10:00+00:00,234.7031,-1.3,14.64,47.84626,-54.09684
2019-03-03 16:20:00+00:00,230.9565,-1.3,14.72,47.84626,-54.09684
2019-03-03 16:30:00+00:00,232.7098,-1.3,14.64,47.84626,-54.09684
2019-03-03 16:40:00+00:00,230.4081,-1.3,14.64,47.84626,-54.09684
2019-03-03 16:50:00+00:00,231.2714,-1.29,14.64,47.84626,-54.09684
2019-03-03 17:00:00+00:00,237.0148,-1.28,14.56,47.84626,-54.09684
2019-03-03 17:10:00+00:00,237.8264,-1.29,14.48,47.84626,-54.09684
2019-03-03 17:20:00+00:00,243.6898,-1.27,14.64,47.84626,-54.09684
2019-03-03 17:30:00+00:00,252.2231,-1.24,14.64,47.84626,-54.09684
2019-03-03 17:40:00+00:00,252.5314,-1.25,14.64,47.84626,-54.09684
2019-03-03 17:50:00+00:00,258.2747,-1.25,14.64,47.84626,-54.09684
2019-03-03 18:00:00+00:00,265.8164,-1.23,14.56,47.84626,-54.09684
2019-03-03 18:10:00+00:00,263.8047,-1.21,14.48,47.84626,-54.09684
2019-03-03 18:20:00+00:00,259.973,-1.2,14.64,47.84626,-54.09684
2019-03-03 18:30:00+00:00,266.2131,-1.2,14.64,47.84626,-54.09684
2019-03-03 18:40:00+00:00,267.7747,-1.2,14.64,47.84626,-54.09684
2019-03-03 18:50:00+00:00,264.4381,-1.2,14.64,47.84626,-54.09684
2019-03-03 19:00:00+00:00,269.7631,-1.2,14.56,47.84626,-54.09684
2019-03-03 19:10:00+00:00,283.668,-1.2,14.4,47.84626,-54.09684
2019-03-03 19:20:00+00:00,285.2697,-1.2,14.4,47.84626,-54.09684
2019-03-03 19:30:00+00:00,278.2463,-1.2,14.4,47.84626,-54.09684
2019-03-03 19:40:00+00:00,285.2747,-1.2,14.4,47.84626,-54.09684
2019-03-03 19:50:00+00:00,298.9314,-1.2,14.32,47.84626,-54.09684
2019-03-03 20:00:00+00:00,293.1213,-1.2,14.24,47.84626,-54.09684
2019-03-03 20:10:00+00:00,283.9797,-1.2,14.0,47.84626,-54.09684
2019-03-03 20:20:00+00:00,298.4014,-1.2,14.0,47.84626,-54.09684
2019-03-03 20:30:00+00:00,312.2863,-1.2,13.92,47.84626,-54.09684
2019-03-03 20:40:00+00:00,305.408,-1.2,13.92,47.84626,-54.09684
2019-03-03 20:50:00+00:00,303.3229,-1.2,13.84,47.84626,-54.09684
2019-03-03 21:00:00+00:00,317.698,-1.2,13.76,47.84626,-54.09684
2019-03-03 21:10:00+00:00,319.8446,-1.2,13.6,47.84626,-54.09684
2019-03-03 21:20:00+00:00,311.0164,-1.2,13.53,47.84626,-54.09684
2019-03-03 21:30:00+00:00,321.603,-1.2,13.53,47.84626,-54.09684
2019-03-03 21:40:00+00:00,337.6797,-1.2,13.44,47.84626,-54.09684
2019-03-03 21:50:00+00:00,338.3013,-1.2,13.44,47.84626,-54.09684
2019-03-03 22:00:00+00:00,336.813,-1.2,13.29,47.84626,-54.09684
2019-03-03 22:10:00+00:00,347.4913,-1.2,13.21,47.84626,-54.09684
2019-03-03 22:20:00+00:00,353.7913,-1.2,13.21,47.84626,-54.09684
2019-03-03 22:30:00+00:00,343.8163,-1.2,13.13,47.84626,-54.09684
2019-03-03 22:40:00+00:00,341.1297,-1.2,13.13,47.84626,-54.09684
2019-03-03 22:50:00+00:00,349.0063,-1.2,13.13,47.84626,-54.09684
2019-03-03 23:00:00+00:00,350.2863,-1.2,13.05,47.84626,-54.09684
2019-03-03 23:10:00+00:00,341.0428,-1.2,12.89,47.84626,-54.09684
2019-03-03 23:20:00+00:00,336.3947,-1.2,12.97,47.84626,-54.09684
2019-03-03 23:30:00+00:00,335.723,-1.2,12.97,47.84626,-54.09684
2019-03-03 23:40:00+00:00,337.608,-1.2,12.97,47.84626,-54.09684
2019-03-03 23:50:00+00:00,334.7746,-1.2,12.97,47.84626,-54.09684
